SL-14 DEB, 45291

Orbit data source: Space-Track

SL-14 DEB, 45291 is space debris in LEO originally from a launch on Thu, 15 Aug 1991 UTC launched from the Plesetsk Missile And Space Complex (PKMTR). Debris objects in space refer to the collection of defunct objects orbiting the Earth. Examples of debris include non-operational satellites, rocket bodies, and fragments generated from explosions, collisions, or faulty payload assembly.

Loading next visibility...
Identifier
45291, 1991-056AD
Orbit
LEO
Last TLE update
9 hours ago
Origin
Manufacturer
Unknown
Mission
Spacecraft
Bus & Motor
Unknown
Mass
Unknown
Launch date (UTC)
1991-08-15 (34 years ago)
Launch vehicle
Unknown
Launch site
Plesetsk Missile And Space Complex (PKMTR)
Object type
Payload
Rocket body
Debris
Shape & HBR
Unknown
Radar Cross Section
Small (<0.1 m²)

Expand to show TLE details & history

TLE from 9 hours ago
0 SL-14 DEB
1 45291U 91056AD  25182.01410985 -.00000122  00000-0 -38336-3 0  9991
2 45291  82.5465  42.9766 0038247 101.1275 259.4148 13.10717949256567
Epoch: 2025-07-01T00:20Z
TLE epoch observation values (Epoch: 2025-07-01T00:20:19.091Z)
Latitude
0.00002°
Longitude
118.58141°
Altitude
1,228.628 km
Speed
7.238 km/s
True Right ascension
02h 51m 54s
True Declination
0° 00' 00"
Sunlit
Object was in daylight at epoch
Visualization orbit readout
Latitude
30.79578°
Longitude
122.75943°
Altitude
1,213.74 km
Speed
7.255 km/s
Apparent Right ascension
05h 39m 25s
Apparent Declination
-1° 27' 10"
Sunlit
Object is in daylight
Visualization observer readout
Local Sidereal Time
21:17:40
Azimuth
66.599° ENE
Elevation
-27.441°
Doppler factor
1
Orbital elements
Apogee altitude
1,246.688 km
Perigee altitude
1,188.585 km
Semi-major axis
7,595.774 km
Eccentricity
0.00382
Inclination
82.5465°
RAAN
42.9766°
Arg. of periapsis
101.1275°
True anomaly
Unknown
Mean anomaly
259.4148°
Eccentric anomaly
Unknown
Mean motion
3.27858 °/min
Orbital period
109.8 mins
BSTAR
-0.00038336
Loading maneuver chart data...
Loading SW <> Apogee altitude chart data...
Loading historical data...
Loading historical data...
Loading historical data...
Loading historical data...
Loading historical data...
Loading historical data...
Loading historical data...

SL-14 DEB Visibility forecast

Observer location: undefined°, undefined°

Span
Click to sort rows by Start time (UTC) header in descending order
Start Az.
Max El. time (UTC)
Max El. Az.
Max El.
End time (UTC)
End Az.
13 mins2025-07-01 15:05:21.533Z169.93° S2025-07-01 15:11:21.533Z111.326° ESE41.284°2025-07-01 15:18:21.533Z15.301° NNE
9 mins2025-07-01 16:59:21.533Z253.009° W2025-07-01 17:03:21.533Z294.28° NW21.657°2025-07-01 17:08:21.533Z339.993° N
6 mins2025-07-02 00:47:21.533Z41.833° NE2025-07-02 00:49:21.533Z59.632° ENE14.631°2025-07-02 00:53:21.533Z94.396° ESE
13 mins2025-07-02 02:35:21.533Z352.807° N2025-07-02 02:41:21.533Z7.383° NNE44.885°2025-07-02 02:48:21.533Z173.874° S
5 mins2025-07-02 04:29:21.533Z298.294° NW2025-07-02 04:31:21.533Z280.419° WNW14.11°2025-07-02 04:34:21.533Z254.82° W
|